DW3397 Weather Reports


Display with metric or nautical units.
time (UTC)temp
F
wind
direction
speed
MPH
gust
MPH
rain 1hr
in
rain 24hr
in
rain mn
in
humidity
%
barometer
mb
20220524024036 73 180 0.0 0.0 0.00 0.00 1.54 85 1016.2
20220524023109 73 171 0.0 0.0 0.00 0.00 1.54 85 1015.7
20220524022051 73 175 0.0 0.0 0.00 0.00 1.54 85 1015.6
20220524021038 73 182 0.0 0.0 0.00 0.00 1.54 85 1015.8
20220524020425 73 183 0.0 0.0 0.00 0.00 1.54 85 1015.7
20220524015013 73 189 1.0 2.0 0.00 0.00 1.54 84 1015.7
20220524014747 73 189 0.0 0.0 0.00 0.00 1.54 84 1015.7
20220524014036 73 190 1.0 2.0 0.00 0.00 1.54 84 1015.6
20220524013140 74 197 2.0 2.0 0.00 0.00 1.54 83 1015.3
20220524012048 74 197 2.0 2.0 0.00 0.00 1.54 83 1015.3
20220524011131 74 197 2.0 2.0 0.00 0.00 1.54 83 1015.3
20220524010431 74 197 2.0 2.0 0.00 0.00 1.54 83 1015.3
20220524005943 74 195 2.0 2.0 0.00 0.00 1.54 83 1015.4
20220524005038 74 189 1.0 2.0 0.00 0.00 1.54 82 1015.0
20220524004113 75 179 0.0 0.0 0.00 0.00 1.54 82 1014.7
20220524003613 75 172 0.0 0.0 0.00 0.00 1.54 81 1014.6
20220524003117 75 175 0.0 0.0 0.00 0.00 1.54 81 1014.4
20220524002114 75 175 0.0 0.0 0.00 0.00 1.54 80 1014.4
20220524001203 75 185 1.0 2.0 0.00 0.00 1.54 79 1014.6
20220524000947 75 189 1.0 2.0 0.00 0.00 1.54 79 1014.9
20220523235029 76 190 1.0 2.0 0.00 0.00 1.54 78 1014.4
20220523234055 76 186 0.0 0.0 0.00 0.00 1.54 77 1014.3
20220523233507 76 186 1.0 2.0 0.00 0.00 1.54 78 1014.3
20220523233035 76 190 2.0 2.0 0.00 0.00 1.54 78 1014.2
20220523232154 78 172 2.0 2.0 0.00 0.00 1.54 79 1014.1
20220523231114 78 178 1.0 2.0 0.00 0.00 1.54 79 1013.9
20220523230218 78 213 0.0 0.0 0.00 0.00 1.54 79 1013.3
20220523225014 77 179 0.0 0.0 0.00 0.00 1.54 80 1013.3
20220523224025 77 192 0.0 0.0 0.00 0.00 1.54 79 1013.4
20220523223111 77 181 0.0 0.0 0.00 0.00 1.54 79 1013.4
20220523222146 78 194 0.0 0.0 0.00 0.00 1.54 77 1013.8
20220523221025 78 192 1.0 2.0 0.00 0.00 1.54 76 1014.2
20220523220137 78 209 1.0 2.0 0.00 0.00 1.54 77 1014.3
20220523215104 78 187 0.0 0.0 0.00 0.00 1.54 76 1014.2
20220523214159 78 184 0.0 0.0 0.00 0.00 1.54 76 1014.6
20220523213027 79 190 3.0 4.0 0.00 0.00 1.54 73 1014.7
20220523212839 79 198 1.0 2.0 0.00 0.00 1.54 73 1014.8
20220523212033 79 179 1.0 2.0 0.00 0.00 1.54 74 1015.1
20220523211020 78 168 2.0 3.0 0.00 0.00 1.54 75 1015.0
20220523210830 78 205 4.0 5.0 0.00 0.00 1.54 75 1015.2
20220523205057 80 213 1.0 3.0 0.00 0.00 1.54 72 1015.1
20220523204840 80 189 1.0 2.0 0.00 0.00 1.54 72 1015.2
20220523204032 80 181 0.0 0.0 0.00 0.00 1.54 73 1015.2
20220523203129 80 332 3.0 4.0 0.00 0.00 1.54 72 1015.4
20220523202019 80 214 2.0 2.0 0.00 0.00 1.54 72 1015.6
20220523201109 80 184 5.0 7.0 0.00 0.00 1.54 71 1015.7
20220523200415 80 193 2.0 3.0 0.00 0.00 1.54 73 1015.7
20220523195030 80 204 4.0 5.0 0.00 0.00 1.54 74 1016.0
20220523194155 81 169 1.0 2.0 0.00 0.00 1.54 75 1016.2
20220523193112 79 214 3.0 4.0 0.00 0.00 1.54 76 1016.2
20220523192019 79 214 4.0 4.0 0.00 0.00 1.54 77 1016.1
20220523191038 79 208 1.0 2.0 0.00 0.00 1.54 77 1016.1
20220523190139 79 193 2.0 2.0 0.00 0.00 1.54 76 1015.9
20220523185039 80 202 3.0 4.0 0.00 0.00 1.54 75 1016.0
20220523184457 81 220 2.0 2.0 0.00 0.00 1.54 74 1015.9
20220523184045 80 190 1.0 2.0 0.00 0.00 1.54 75 1015.9
20220523183112 80 204 3.0 4.0 0.00 0.00 1.54 74 1015.7
20220523182126 80 199 1.0 2.0 0.00 0.00 1.54 76 1015.9
20220523181135 79 198 2.0 4.0 0.00 0.00 1.54 76 1015.9
20220523180902 80 230 4.0 5.0 0.00 0.00 1.54 75 1016.0
20220523175032 79 270 2.0 3.0 0.00 0.00 1.54 77 1016.2
20220523174035 79 157 1.0 2.0 0.00 0.00 1.54 77 1015.9
20220523173200 78 192 1.0 2.0 0.00 0.00 1.54 77 1016.2
20220523172051 78 307 3.0 3.0 0.00 0.00 1.54 79 1016.1
20220523171126 77 201 2.0 3.0 0.00 0.00 1.54 81 1016.4
20220523165111 75 291 1.0 2.0 0.00 0.00 1.54 84 1016.6
20220523164032 76 186 2.0 3.0 0.00 0.00 1.54 82 1016.7
20220523163120 76 188 2.0 2.0 0.00 0.00 1.54 82 1016.7
20220523162731 76 199 5.0 6.0 0.00 0.00 1.54 81 1016.7
20220523162036 75 204 2.0 2.0 0.00 0.00 1.54 84 1017.1
20220523161013 75 204 2.0 2.0 0.00 0.00 1.54 85 1016.6
20220523155102 74 200 2.0 2.0 0.00 0.00 1.54 85 1016.6
20220523154019 74 211 0.0 0.0 0.00 0.00 1.54 87 1016.5
20220523153111 73 281 2.0 3.0 0.00 0.00 1.54 88 1016.6
20220523152206 72 176 1.0 2.0 0.00 0.00 1.54 92 1016.7
20220523151157 71 191 1.0 2.0 0.00 0.00 1.54 93 1016.9
20220523150204 71 155 2.0 2.0 0.00 0.00 1.54 94 1016.9
20220523145117 71 244 1.0 2.0 0.00 0.00 1.54 94 1016.8
20220523144129 71 267 2.0 3.0 0.00 0.00 1.54 93 1016.7
20220523143148 71 339 2.0 3.0 0.00 0.00 1.54 93 1016.8
20220523142041 71 173 1.0 2.0 0.00 0.00 1.54 94 1016.5
20220523141102 70 279 1.0 2.0 0.00 0.00 1.54 95 1016.4
20220523140224 71 202 3.0 4.0 0.00 0.00 1.54 97 1016.3
20220523135129 70 188 1.0 2.0 0.00 0.00 1.54 98 1016.3
20220523134121 70 213 1.0 2.0 0.00 0.00 1.54 99 1016.1
20220523134006 70 271 1.0 2.0 0.00 0.00 1.54 99 1016.3
20220523132034 69 193 1.0 2.0 0.00 0.00 1.54 99 1015.7
20220523131111 69 215 4.0 5.0 0.00 0.00 1.54 99 1015.7
20220523130213 68 308 2.0 3.0 0.00 0.00 1.54 99 1015.4
20220523125055 68 203 1.0 2.0 0.00 0.00 1.54 99 1015.1
20220523124142 68 171 2.0 3.0 0.00 0.00 1.54 99 1015.0
20220523123042 68 191 2.0 3.0 0.00 0.00 1.54 99 1014.6
20220523122132 68 225 3.0 4.0 0.00 0.00 1.53 99 1014.1
20220523121024 68 202 3.0 4.0 0.00 0.00 1.53 99 1013.6
20220523120203 68 213 4.0 6.0 0.00 0.00 1.53 99 1013.5
20220523115156 68 266 4.0 7.0 0.00 0.00 1.53 99 1013.1
20220523114036 68 193 7.0 10.0 0.00 0.00 1.52 99 1012.5
20220523113110 69 218 6.0 7.0 0.00 0.00 1.52 99 1011.9
20220523112022 69 188 7.0 10.0 0.00 0.00 1.52 99 1011.4
20220523111035 69 167 3.0 4.0 0.00 0.00 1.52 99 1011.7
20220523110130 69 211 10.0 13.0 0.00 0.00 1.52 99 1011.3
20220523105136 69 202 7.0 7.0 0.00 0.00 1.52 99 1011.1
20220523104027 69 185 3.0 4.0 0.00 0.00 1.52 99 1011.0
20220523103052 69 178 3.0 4.0 0.00 0.00 1.51 99 1010.9
20220523102027 69 148 1.0 2.0 0.00 0.00 1.51 99 1011.1
20220523101137 68 216 1.0 3.0 0.00 0.00 1.50 99 1011.1
20220523100828 68 159 2.0 3.0 0.00 0.00 1.48 99 1011.1
20220523095129 68 149 3.0 3.0 0.00 0.00 1.44 99 1011.4
20220523094045 68 82 1.0 3.0 0.00 0.00 1.37 99 1011.6
20220523093125 67 36 2.0 4.0 0.00 0.00 1.33 99 1012.0
20220523092045 67 148 2.0 3.0 0.00 0.00 1.31 99 1012.3
20220523091036 68 2 4.0 6.0 0.00 0.00 1.28 99 1012.7
20220523090427 68 65 1.0 2.0 0.00 0.00 1.27 99 1013.2
20220523085012 68 105 1.0 2.0 0.00 0.00 1.18 99 1013.1
20220523084519 68 148 2.0 3.0 0.00 0.00 1.17 99 1013.3
20220523084055 68 66 1.0 3.0 0.00 0.00 1.16 99 1013.5
20220523083134 68 340 3.0 5.0 0.00 0.00 1.14 99 1013.7
20220523082138 68 218 1.0 2.0 0.00 0.00 1.12 99 1014.1
20220523081048 68 357 2.0 3.0 0.00 0.00 1.12 99 1014.4
20220523080433 68 37 2.0 3.0 0.00 0.00 1.12 99 1014.3
20220523075034 68 160 1.0 2.0 0.00 0.00 1.10 99 1015.0
20220523074244 68 336 2.0 3.0 0.00 0.00 1.10 99 1014.9
20220523074024 68 175 2.0 3.0 0.00 0.00 1.10 99 1015.1
20220523073038 68 184 0.0 0.0 0.00 0.00 1.05 99 1015.4
20220523072023 68 177 0.0 0.0 0.00 0.00 0.99 99 1015.3
20220523071121 68 166 0.0 0.0 0.00 0.00 0.99 99 1015.4
20220523070913 68 175 0.0 0.0 0.00 0.00 0.99 99 1015.5
20220523065140 69 62 3.0 4.0 0.00 0.00 0.54 99 1016.1
20220523064033 69 197 1.0 2.0 0.00 0.00 0.37 99 1015.7
20220523063044 69 17 3.0 4.0 0.00 0.00 0.29 99 1015.8
20220523062441 69 10 1.0 3.0 0.00 0.00 0.27 99 1015.8
20220523062050 69 154 1.0 2.0 0.00 0.00 0.25 99 1015.5
20220523061043 69 74 3.0 4.0 0.00 0.00 0.20 99 1015.4
20220523060206 69 165 0.0 0.0 0.00 0.00 0.16 98 1016.1
20220523055024 69 351 1.0 2.0 0.00 0.00 0.11 97 1016.6
20220523054053 70 8 2.0 3.0 0.00 0.00 0.06 97 1016.8
20220523053129 70 191 1.0 2.0 0.00 0.00 0.04 96 1016.7
20220523052116 70 145 1.0 2.0 0.00 0.00 0.02 96 1016.7
20220523051025 70 177 0.0 0.0 0.00 0.00 0.00 95 1016.9
20220523050824 70 148 0.0 0.0 0.00 0.00 0.00 95 1016.8
20220523045128 69 191 1.0 2.0 0.00 0.52 0.52 95 1016.9
20220523044025 69 223 1.0 2.0 0.00 0.52 0.52 96 1017.0
20220523043034 69 161 1.0 2.0 0.00 0.00 0.52 96 1017.2
20220523042117 69 193 0.0 0.0 0.00 0.00 0.52 96 1017.3
20220523041156 69 176 1.0 2.0 0.00 0.00 0.52 96 1017.4
20220523040430 69 156 0.0 0.0 0.00 0.00 0.52 96 1017.7
20220523035010 69 148 0.0 0.0 0.00 0.00 0.52 96 1017.7
20220523034143 70 175 1.0 2.0 0.00 0.00 0.52 96 1017.7
20220523033049 70 184 1.0 2.0 0.00 0.00 0.52 96 1017.4
20220523032054 70 174 1.0 2.0 0.00 0.00 0.52 96 1017.4
20220523031024 69 173 0.0 0.0 0.00 0.00 0.52 96 1017.7
20220523030835 69 177 0.0 0.0 0.00 0.00 0.52 96 1017.8
20220523025127 69 180 0.0 0.0 0.00 0.00 0.52 96 1017.7